Location: Moy Burn
(57.3833°N, 4.0667°W)
Time: 11:32:16
(UTC+00:00)

Cosmos 2173 Rocket - Pass Details

Date: 08 August 2020
Orbit: 945 x 1000 km, 83.0° (Epoch: 21 September)

Event Time Altitude Azimuth Distance (km) Brightness Sun altitude
Exits shadow 22:21:10 16° 165° (SSE) 2,292 5.3 -12.7°
Maximum altitude 22:26:00 54° 93° (E) 1,150 4.2 -13.0°
Drops below altitude 10° 22:31:57 10° 18° (NNE) 2,689 7.0 -13.4°
Sets 22:34:29 0° 14° (NNE) 3,634 7.8 -13.5°
